Flag for U.S.A. Weather past 2 weeks in Wilmington, North Carolina, U.S.A.

Now
67 °F

Clear.


Feels Like: 67 °F
Forecast: 66 / 86 °F
Wind: 7 mph from North

Location: New Hanover International Airport

Current Time: Aug 27, 2014 at 8:04:13 AM

Latest Report: Aug 27, 2014 at 6:53 AM


Visibility: 10 mi

Pressure: 29.99 "Hg

Humidity: 90%

Dew point: 64 °F

Location of WilmingtonLocation

Historic Weather in Wilmington — Graph

°F

Wilmington temperature yesterday

Maximum temperature yesterday: 84 °F (at 2:53 PM)
Minimum temperature yesterday: 65 °F (at 5:53 AM)
Average temperature yesterday: 74 °F

Past Weeks' High & Low Weather Summary

 TemperatureHumidityPressure
High95 °F (Aug 22, 2:53 PM)97% (Aug 12, 6:00 AM)30.07 "Hg (Aug 12, 6:00 AM)
Low64 °F (Aug 25, 3:53 AM)36% (Aug 15, 3:53 PM)29.79 "Hg (Aug 19, 2:53 AM)
Average79 °F77%29.95 "Hg
* Reported Aug 12 6:00 AM — Aug 27 5:53 AM, Wilmington, Weather by CustomWeather, © 2014

Note: Actual official high and low records may vary slightly from our data, if they occured in-between our weather recording intervals... More about our weather records

Advertising

Wilmington weather history for previous 24 hours

 ConditionsComfort  
Time TempWeatherWind HumidityBarometerVisibility
5:53 AM
Aug 27
67 °FClear.6 mph93%29.98 "Hg10 mi
4:53 AM67 °FPassing clouds.7 mph93%29.97 "Hg10 mi
3:53 AM68 °FClear.8 mph90%29.97 "Hg10 mi
2:53 AM68 °FClear.8 mph87%29.99 "Hg10 mi
1:53 AM68 °FClear.8 mph87%30.01 "Hg10 mi
12:53 AM68 °FClear.3 mph87%30.02 "Hg10 mi
11:53 PM
Aug 26
68 °FClear.7 mph84%30.03 "Hg10 mi
10:53 PM70 °FClear.7 mph79%30.03 "Hg10 mi
9:53 PM72 °FClear.8 mph71%30.03 "Hg10 mi
8:53 PM73 °FClear.7 mph69%30.03 "Hg10 mi
7:53 PM76 °FSunny.7 mph67%30.01 "Hg10 mi
6:53 PM81 °FSunny.7 mph54%30.02 "Hg10 mi
5:53 PM83 °FPassing clouds.13 mph53%30.02 "Hg10 mi
4:53 PM84 °FScattered clouds.16 mph55%30.03 "Hg10 mi
3:53 PM84 °FScattered clouds.13 mph57%30.03 "Hg10 mi
2:53 PM84 °FCloudy.13 mph59%30.05 "Hg10 mi
1:53 PM81 °FOvercast.10 mph60%30.06 "Hg10 mi
12:53 PM83 °FScattered clouds.13 mph57%30.06 "Hg10 mi
11:53 AM81 °FSunny.9 mph58%30.07 "Hg10 mi
10:53 AM79 °FSunny.15 mph65%30.07 "Hg10 mi
9:53 AM76 °FSunny.14 mph72%30.06 "Hg10 mi
8:53 AM71 °FSunny.13 mph81%30.07 "Hg10 mi
Weather by CustomWeather, © 2014

See weather overviewHow to use our weather pages